Location: Cutler
(25.6150°N, 80.3110°W)
Time: 15:15:51
(UTC-04:00)

UWE-3 - Visible Passes

Search period start: 24 May 2018 00:00
Search period end: 03 June 2018 00:00
Orbit: 587 x 683 km, 97.6° (Epoch: 23 May)

Date Brightness Start Highest point End Pass type
(mag) Time Alt. Az. Time Alt. Az. Time Alt. Az.
24 May ? 20:21:06 10° S 20:25:31 54° W 20:30:03 10° NNW visible
25 May ? 20:43:33 10° SSW 20:47:27 28° W 20:51:27 10° NW visible
26 May ? 21:06:46 10° SW 21:09:28 15° W 21:12:11 10° WNW visible
29 May ? 20:34:24 10° SSW 20:38:36 36° W 20:42:54 10° NNW visible
30 May ? 20:57:16 10° SW 21:00:35 20° W 21:03:57 10° NW visible
31 May ? 21:22:07 10° W 21:22:36 10° W 21:23:06 10° W visible
02 Jun ? 20:25:21 10° S 20:29:46 45° W 20:34:15 10° NNW visible
